Time,TemperatureF,DewpointF,PressureIn,WindDirection,WindDirectionDegrees,WindSpeedMPH,WindSpeedGustMPH,Humidity,HourlyPrecipIn,Conditions,Clouds,dailyrainin,SolarRadiationWatts/m^2,SoftwareType,DateUTC
2013-03-15 00:22:00,33.0,17.0,-100.00,NE,52,4.0,7.0,51,0.00,,,0.00,0.000000,,2013-03-15 06:22:00,
2013-03-15 00:32:00,33.0,17.0,-100.00,NE,52,4.0,7.0,51,0.00,,,0.00,0.000000,,2013-03-15 06:32:00,
2013-03-15 00:42:00,33.0,17.0,-100.00,NE,52,4.0,7.0,51,0.00,,,0.00,0.000000,,2013-03-15 06:42:00,
2013-03-15 00:52:00,33.0,17.0,-100.00,NE,52,4.0,7.0,51,0.00,,,0.00,0.000000,,2013-03-15 06:52:00,
2013-03-15 01:22:00,33.0,17.0,-100.00,NE,45,5.0,8.0,51,0.00,,,0.00,0.000000,,2013-03-15 07:22:00,
2013-03-15 01:32:00,33.0,17.0,-100.00,NE,45,5.0,8.0,51,0.00,,,0.00,0.000000,,2013-03-15 07:32:00,
2013-03-15 01:42:00,33.0,17.0,-100.00,NE,45,5.0,8.0,51,0.00,,,0.00,0.000000,,2013-03-15 07:42:00,
2013-03-15 01:52:00,33.0,17.0,-100.00,NE,45,5.0,8.0,51,0.00,,,0.00,0.000000,,2013-03-15 07:52:00,
2013-03-15 02:23:00,30.0,16.0,-100.00,East,100,3.0,9.0,56,0.00,,,0.00,0.000000,,2013-03-15 08:23:00,
2013-03-15 02:33:00,30.0,16.0,-100.00,East,100,3.0,9.0,56,0.00,,,0.00,0.000000,,2013-03-15 08:33:00,
2013-03-15 02:42:00,30.0,16.0,-100.00,East,100,3.0,9.0,56,0.00,,,0.00,0.000000,,2013-03-15 08:42:00,
2013-03-15 02:52:00,30.0,16.0,-100.00,East,100,3.0,9.0,56,0.00,,,0.00,0.000000,,2013-03-15 08:52:00,
2013-03-15 03:22:00,29.0,16.0,-100.00,ESE,108,4.0,9.0,59,0.00,,,0.00,0.000000,,2013-03-15 09:22:00,
2013-03-15 03:33:00,29.0,16.0,-100.00,ESE,108,4.0,9.0,59,0.00,,,0.00,0.000000,,2013-03-15 09:33:00,
2013-03-15 03:43:00,29.0,16.0,-100.00,ESE,108,4.0,9.0,59,0.00,,,0.00,0.000000,,2013-03-15 09:43:00,
2013-03-15 03:52:00,29.0,16.0,-100.00,ESE,108,4.0,9.0,59,0.00,,,0.00,0.000000,,2013-03-15 09:52:00,
2013-03-15 04:23:00,29.0,18.0,-100.00,ESE,111,2.0,6.0,62,0.00,,,0.00,0.000000,,2013-03-15 10:23:00,
2013-03-15 04:33:00,29.0,18.0,-100.00,ESE,111,2.0,6.0,62,0.00,,,0.00,0.000000,,2013-03-15 10:33:00,
2013-03-15 04:42:00,29.0,18.0,-100.00,ESE,111,2.0,6.0,62,0.00,,,0.00,0.000000,,2013-03-15 10:42:00,
2013-03-15 04:52:00,29.0,18.0,-100.00,ESE,111,2.0,6.0,62,0.00,,,0.00,0.000000,,2013-03-15 10:52:00,
2013-03-15 05:22:00,31.0,18.0,-100.00,NE,48,3.0,8.0,57,0.00,,,0.00,0.000000,,2013-03-15 11:22:00,
2013-03-15 05:32:00,31.0,18.0,-100.00,NE,48,3.0,8.0,57,0.00,,,0.00,0.000000,,2013-03-15 11:32:00,
2013-03-15 05:42:00,31.0,18.0,-100.00,NE,48,3.0,8.0,57,0.00,,,0.00,0.000000,,2013-03-15 11:42:00,
2013-03-15 05:52:00,31.0,18.0,-100.00,NE,48,3.0,8.0,57,0.00,,,0.00,0.000000,,2013-03-15 11:52:00,
2013-03-15 06:23:00,38.0,15.0,-100.00,NNW,335,6.0,14.0,38,0.00,,,0.00,0.000000,,2013-03-15 12:23:00,
2013-03-15 06:32:00,38.0,15.0,-100.00,NNW,335,6.0,14.0,38,0.00,,,0.00,0.000000,,2013-03-15 12:32:00,
2013-03-15 06:42:00,38.0,15.0,-100.00,NNW,335,6.0,14.0,38,0.00,,,0.00,0.000000,,2013-03-15 12:42:00,
2013-03-15 06:52:00,38.0,15.0,-100.00,NNW,335,6.0,14.0,38,0.00,,,0.00,0.000000,,2013-03-15 12:52:00,
2013-03-15 07:22:00,36.0,15.0,-100.00,NNW,347,5.0,8.0,42,0.00,,,0.00,0.000000,,2013-03-15 13:22:00,
2013-03-15 07:32:00,36.0,15.0,-100.00,NNW,347,5.0,8.0,42,0.00,,,0.00,0.000000,,2013-03-15 13:32:00,
2013-03-15 07:42:00,36.0,15.0,-100.00,NNW,347,5.0,8.0,42,0.00,,,0.00,0.000000,,2013-03-15 13:42:00,
2013-03-15 07:52:00,36.0,15.0,-100.00,NNW,347,5.0,8.0,42,0.00,,,0.00,0.000000,,2013-03-15 13:52:00,
2013-03-15 08:22:00,38.0,13.0,-100.00,NW,309,6.0,11.0,36,0.00,,,0.00,5.000000,,2013-03-15 14:22:00,
2013-03-15 08:32:00,38.0,13.0,-100.00,NW,309,6.0,11.0,36,0.00,,,0.00,5.000000,,2013-03-15 14:32:00,
2013-03-15 08:42:00,38.0,13.0,-100.00,NW,309,6.0,11.0,36,0.00,,,0.00,5.000000,,2013-03-15 14:42:00,
2013-03-15 08:52:00,38.0,13.0,-100.00,NW,309,6.0,11.0,36,0.00,,,0.00,5.000000,,2013-03-15 14:52:00,
2013-03-15 09:23:00,44.0,12.0,-100.00,NNW,337,6.0,18.0,27,0.00,,,0.00,90.000000,,2013-03-15 15:23:00,
2013-03-15 09:33:00,44.0,12.0,-100.00,NNW,337,6.0,18.0,27,0.00,,,0.00,90.000000,,2013-03-15 15:33:00,
2013-03-15 09:42:00,44.0,12.0,-100.00,NNW,337,6.0,18.0,27,0.00,,,0.00,90.000000,,2013-03-15 15:42:00,
2013-03-15 09:52:00,44.0,12.0,-100.00,NNW,337,6.0,18.0,27,0.00,,,0.00,90.000000,,2013-03-15 15:52:00,
2013-03-15 10:23:00,48.0,13.0,-100.00,NNW,329,7.0,18.0,24,0.00,,,0.00,385.000000,,2013-03-15 16:23:00,
2013-03-15 10:32:00,48.0,13.0,-100.00,NNW,329,7.0,18.0,24,0.00,,,0.00,385.000000,,2013-03-15 16:32:00,
2013-03-15 10:42:00,48.0,13.0,-100.00,NNW,329,7.0,18.0,24,0.00,,,0.00,385.000000,,2013-03-15 16:42:00,
2013-03-15 10:52:00,48.0,13.0,-100.00,NNW,329,7.0,18.0,24,0.00,,,0.00,385.000000,,2013-03-15 16:52:00,
2013-03-15 11:22:00,53.0,14.0,-100.00,NNW,346,7.0,20.0,21,0.00,,,-99.99,633.000000,,2013-03-15 17:22:00,
2013-03-15 11:32:00,53.0,14.0,-100.00,NNW,346,7.0,20.0,21,0.00,,,-99.99,633.000000,,2013-03-15 17:32:00,
2013-03-15 11:42:00,53.0,14.0,-100.00,NNW,346,7.0,20.0,21,0.00,,,-99.99,633.000000,,2013-03-15 17:42:00,
2013-03-15 11:52:00,53.0,14.0,-100.00,NNW,346,7.0,20.0,21,0.00,,,-99.99,633.000000,,2013-03-15 17:52:00,
2013-03-15 12:22:00,52.0,12.0,-100.00,NW,315,11.0,22.0,20,0.00,,,0.00,714.000000,,2013-03-15 18:22:00,
2013-03-15 12:32:00,52.0,12.0,-100.00,NW,315,11.0,22.0,20,0.00,,,0.00,714.000000,,2013-03-15 18:32:00,
2013-03-15 12:42:00,52.0,12.0,-100.00,NW,315,11.0,22.0,20,0.00,,,0.00,714.000000,,2013-03-15 18:42:00,
2013-03-15 12:52:00,52.0,12.0,-100.00,NW,315,11.0,22.0,20,0.00,,,0.00,714.000000,,2013-03-15 18:52:00,
2013-03-15 13:22:00,52.0,13.0,-100.00,NW,309,11.0,25.0,21,0.00,,,-99.99,691.000000,,2013-03-15 19:22:00,
2013-03-15 13:32:00,52.0,13.0,-100.00,NW,309,11.0,25.0,21,0.00,,,-99.99,691.000000,,2013-03-15 19:32:00,
2013-03-15 13:42:00,52.0,13.0,-100.00,NW,309,11.0,25.0,21,0.00,,,-99.99,691.000000,,2013-03-15 19:42:00,
2013-03-15 13:52:00,52.0,13.0,-100.00,NW,309,11.0,25.0,21,0.00,,,-99.99,691.000000,,2013-03-15 19:52:00,
2013-03-15 14:22:00,52.0,14.0,-100.00,NW,305,13.0,34.0,22,0.00,,,-99.99,783.000000,,2013-03-15 20:22:00,
2013-03-15 14:32:00,52.0,14.0,-100.00,NW,305,13.0,34.0,22,0.00,,,-99.99,783.000000,,2013-03-15 20:32:00,
2013-03-15 14:42:00,52.0,14.0,-100.00,NW,305,13.0,34.0,22,0.00,,,-99.99,783.000000,,2013-03-15 20:42:00,
2013-03-15 14:52:00,52.0,14.0,-100.00,NW,305,13.0,34.0,22,0.00,,,-99.99,783.000000,,2013-03-15 20:52:00,
2013-03-15 15:22:00,53.0,14.0,-100.00,NW,314,12.0,26.0,21,0.00,,,0.00,797.000000,,2013-03-15 21:22:00,
2013-03-15 15:33:00,53.0,14.0,-100.00,NW,314,12.0,26.0,21,0.00,,,0.00,797.000000,,2013-03-15 21:33:00,
2013-03-15 15:43:00,53.0,14.0,-100.00,NW,314,12.0,26.0,21,0.00,,,0.00,797.000000,,2013-03-15 21:43:00,
2013-03-15 15:52:00,53.0,14.0,-100.00,NW,314,12.0,26.0,21,0.00,,,0.00,797.000000,,2013-03-15 21:52:00,
2013-03-15 16:22:00,52.0,13.0,-100.00,NW,314,11.0,22.0,21,0.00,,,0.00,710.000000,,2013-03-15 22:22:00,
2013-03-15 16:32:00,52.0,13.0,-100.00,NW,314,11.0,22.0,21,0.00,,,0.00,710.000000,,2013-03-15 22:32:00,
2013-03-15 16:42:00,52.0,13.0,-100.00,NW,314,11.0,22.0,21,0.00,,,0.00,710.000000,,2013-03-15 22:42:00,
2013-03-15 16:52:00,52.0,13.0,-100.00,NW,314,11.0,22.0,21,0.00,,,0.00,710.000000,,2013-03-15 22:52:00,
2013-03-15 17:22:00,52.0,13.0,-100.00,NW,313,10.0,23.0,21,0.00,,,0.00,552.000000,,2013-03-15 23:22:00,
2013-03-15 17:32:00,52.0,13.0,-100.00,NW,313,10.0,23.0,21,0.00,,,0.00,552.000000,,2013-03-15 23:32:00,
2013-03-15 17:42:00,52.0,13.0,-100.00,NW,313,10.0,23.0,21,0.00,,,0.00,552.000000,,2013-03-15 23:42:00,
2013-03-15 17:52:00,52.0,13.0,-100.00,NW,313,10.0,23.0,21,0.00,,,0.00,552.000000,,2013-03-15 23:52:00,
2013-03-15 18:22:00,48.0,13.0,-100.00,NW,315,7.0,19.0,24,0.00,,,0.00,308.000000,,2013-03-16 00:22:00,
2013-03-15 18:32:00,48.0,13.0,-100.00,NW,315,7.0,19.0,24,0.00,,,0.00,308.000000,,2013-03-16 00:32:00,
2013-03-15 18:42:00,48.0,13.0,-100.00,NW,315,7.0,19.0,24,0.00,,,0.00,308.000000,,2013-03-16 00:42:00,
2013-03-15 18:52:00,48.0,13.0,-100.00,NW,315,7.0,19.0,24,0.00,,,0.00,308.000000,,2013-03-16 00:52:00,
2013-03-15 19:22:00,45.0,13.0,-100.00,North,0,5.0,17.0,27,0.00,,,0.00,70.000000,,2013-03-16 01:22:00,
2013-03-15 19:32:00,45.0,13.0,-100.00,North,0,5.0,17.0,27,0.00,,,0.00,70.000000,,2013-03-16 01:32:00,
2013-03-15 19:42:00,45.0,13.0,-100.00,North,0,5.0,17.0,27,0.00,,,0.00,70.000000,,2013-03-16 01:42:00,
2013-03-15 19:52:00,45.0,13.0,-100.00,North,0,5.0,17.0,27,0.00,,,0.00,70.000000,,2013-03-16 01:52:00,
2013-03-15 20:23:00,43.0,14.0,-100.00,North,8,5.0,11.0,31,0.00,,,0.00,3.000000,,2013-03-16 02:23:00,
2013-03-15 20:32:00,43.0,14.0,-100.00,North,8,5.0,11.0,31,0.00,,,0.00,3.000000,,2013-03-16 02:32:00,
2013-03-15 20:42:00,43.0,14.0,-100.00,North,8,5.0,11.0,31,0.00,,,0.00,3.000000,,2013-03-16 02:42:00,
2013-03-15 20:52:00,43.0,14.0,-100.00,North,8,5.0,11.0,31,0.00,,,0.00,3.000000,,2013-03-16 02:52:00,
2013-03-15 21:22:00,41.0,14.0,-100.00,NNE,24,5.0,12.0,33,0.00,,,0.00,0.000000,,2013-03-16 03:22:00,
2013-03-15 21:32:00,41.0,14.0,-100.00,NNE,24,5.0,12.0,33,0.00,,,0.00,0.000000,,2013-03-16 03:32:00,
2013-03-15 21:43:00,41.0,14.0,-100.00,NNE,24,5.0,12.0,33,0.00,,,0.00,0.000000,,2013-03-16 03:43:00,
2013-03-15 21:52:00,41.0,14.0,-100.00,NNE,24,5.0,12.0,33,0.00,,,0.00,0.000000,,2013-03-16 03:52:00,
2013-03-15 22:23:00,40.0,15.0,-100.00,NNE,26,4.0,9.0,36,0.00,,,0.00,0.000000,,2013-03-16 04:23:00,
2013-03-15 22:33:00,40.0,15.0,-100.00,NNE,26,4.0,9.0,36,0.00,,,0.00,0.000000,,2013-03-16 04:33:00,
2013-03-15 22:43:00,40.0,15.0,-100.00,NNE,26,4.0,9.0,36,0.00,,,0.00,0.000000,,2013-03-16 04:43:00,
2013-03-15 22:52:00,40.0,15.0,-100.00,NNE,26,4.0,9.0,36,0.00,,,0.00,0.000000,,2013-03-16 04:52:00,
2013-03-15 23:22:00,38.0,15.0,-100.00,NNE,13,3.0,10.0,39,0.00,,,0.00,0.000000,,2013-03-16 05:22:00,
2013-03-15 23:32:00,38.0,15.0,-100.00,NNE,13,3.0,10.0,39,0.00,,,0.00,0.000000,,2013-03-16 05:32:00,
2013-03-15 23:42:00,38.0,15.0,-100.00,NNE,13,3.0,10.0,39,0.00,,,0.00,0.000000,,2013-03-16 05:42:00,
2013-03-15 23:52:00,38.0,15.0,-100.00,NNE,13,3.0,10.0,39,0.00,,,0.00,0.000000,,2013-03-16 05:52:00,